Location: Newark
(49.2191°N, 12.6671°E)
Time: 18:43:08
(UTC+00:00)

Transit 4A - Pass Details

Date: 01 February 2020
Orbit: 872 x 973 km, 66.8° (Epoch: 26 February)

Event Time Altitude Azimuth Distance (km) Brightness Sun altitude
Rises 07:12:33 0° 279° (W) 3,506 10.3 3.6°
Reaches altitude 10° 07:15:58 10° 298° (WNW) 2,553 9.6 4.1°
Maximum altitude 07:19:50 18° 340° (NNW) 2,047 9.3 4.6°
Drops below altitude 10° 07:23:41 10° 21° (NNE) 2,535 10.1 5.2°
Sets 07:27:05 0° 41° (NE) 3,471 11.0 5.6°
